FW4070 Weather Reports


Display with metric or nautical units.
time (UTC)temp
F
wind
direction
speed
MPH
gust
MPH
rain 1hr
in
rain 24hr
in
rain mn
in
humidity
%
barometer
mb
20260901135525 78 360 6.0 12.0 0.00 0.00 0.00 82 1013.8
20260901135037 78 259 5.0 14.0 0.00 0.00 0.00 82 1013.7
20260901134557 78 360 4.0 14.0 0.00 0.00 0.00 81 1013.7
20260901134049 78 360 5.0 12.0 0.00 0.00 0.00 81 1013.7
20260901133553 78 273 5.0 12.0 0.00 0.00 0.00 81 1013.6
20260901133039 78 271 7.0 12.0 0.00 0.00 0.00 81 1013.6
20260901132545 78 360 5.0 11.0 0.00 0.00 0.00 81 1013.7
20260901132051 78 246 5.0 10.0 0.00 0.00 0.00 81 1013.8
20260901131600 78 360 5.0 11.0 0.00 0.00 0.00 81 1013.7
20260901131102 78 254 5.0 11.0 0.00 0.00 0.00 81 1013.6
20260901130550 78 240 4.0 10.0 0.00 0.00 0.00 81 1013.7
20260901130108 78 273 4.0 10.0 0.00 0.00 0.00 81 1013.8
20260901125505 78 252 4.0 11.0 0.00 0.00 0.00 81 1013.7
20260901125019 78 360 2.0 11.0 0.00 0.00 0.00 81 1013.7
20260901124524 78 360 3.0 9.0 0.00 0.00 0.00 80 1013.9
20260901124002 78 254 3.0 9.0 0.00 0.00 0.00 80 1013.9
20260901123517 78 360 4.0 10.0 0.00 0.00 0.00 80 1013.9
20260901123057 78 244 5.0 10.0 0.00 0.00 0.00 80 1013.9
20260901122507 78 257 4.0 10.0 0.00 0.00 0.00 80 1013.9
20260901122006 78 360 3.0 10.0 0.00 0.00 0.00 80 1013.9
20260901121557 78 236 3.0 9.0 0.00 0.00 0.00 79 1013.8
20260901121100 78 360 3.0 8.0 0.00 0.00 0.00 79 1013.7
20260901120513 78 240 3.0 8.0 0.00 0.00 0.00 79 1013.6
20260901120007 78 360 3.0 9.0 0.00 0.01 0.00 79 1013.6
20260901115523 78 360 4.0 9.0 0.00 0.01 0.00 79 1013.5
20260901115031 78 245 2.0 11.0 0.00 0.01 0.00 79 1013.5
20260901114539 78 240 3.0 11.0 0.00 0.01 0.00 79 1013.3
20260901114043 78 197 2.0 9.0 0.00 0.01 0.00 78 1013.3
20260901113527 78 244 2.0 9.0 0.00 0.01 0.00 78 1013.3
20260901113030 78 223 4.0 12.0 0.00 0.01 0.00 78 1013.2
20260901112512 78 215 4.0 16.0 0.00 0.01 0.00 78 1013.2
20260901112024 78 360 6.0 16.0 0.00 0.01 0.00 78 1013.2
20260901111530 78 259 3.0 9.0 0.00 0.01 0.00 78 1013.1
20260901111041 78 360 3.0 11.0 0.00 0.01 0.00 78 1013.2
20260901110551 78 360 3.0 11.0 0.00 0.01 0.00 78 1013.0
20260901105600 78 251 3.0 10.0 0.00 0.01 0.00 77 1012.9
20260901105002 78 252 3.0 9.0 0.00 0.01 0.00 77 1012.9
20260901104514 78 200 3.0 9.0 0.00 0.01 0.00 77 1012.9
20260901104027 78 226 3.0 11.0 0.00 0.01 0.00 77 1012.9
20260901103533 78 360 3.0 11.0 0.00 0.01 0.00 77 1012.7
20260901103034 78 360 2.0 9.0 0.00 0.01 0.00 77 1012.7
20260901102517 78 155 2.0 9.0 0.00 0.01 0.00 76 1012.6
20260901102044 78 281 4.0 9.0 0.00 0.01 0.00 76 1012.6
20260901101541 78 360 3.0 9.0 0.00 0.01 0.00 76 1012.4
20260901101030 78 240 3.0 12.0 0.00 0.01 0.00 76 1012.4
20260901100536 78 216 3.0 12.0 0.00 0.01 0.00 76 1012.4
20260901100052 78 220 4.0 10.0 0.00 0.03 0.00 76 1012.4
20260901095550 78 210 4.0 10.0 0.00 0.03 0.00 75 1012.4
20260901095057 78 360 3.0 9.0 0.00 0.03 0.00 75 1012.4
20260901094506 78 197 2.0 8.0 0.00 0.03 0.00 74 1012.4
20260901094056 79 220 3.0 9.0 0.00 0.03 0.00 74 1012.4
20260901093601 79 234 5.0 12.0 0.00 0.03 0.00 74 1012.4
20260901093048 79 360 5.0 12.0 0.00 0.03 0.00 74 1012.3
20260901092554 78 225 4.0 11.0 0.00 0.03 0.00 74 1012.4
20260901092054 78 205 3.0 11.0 0.00 0.03 0.00 74 1012.4
20260901091602 78 360 3.0 11.0 0.00 0.03 0.00 74 1012.4
20260901091502 78 224 4.0 11.0 0.00 0.03 0.00 74 1012.4
20260901091005 78 236 4.0 10.0 0.00 0.03 0.00 74 1012.4
20260901090518 78 360 3.0 7.0 0.00 0.03 0.00 74 1012.4
20260901090022 78 225 2.0 8.0 0.00 0.05 0.00 74 1012.5
20260901085526 78 360 3.0 10.0 0.00 0.05 0.00 74 1012.5
20260901085032 78 194 2.0 10.0 0.00 0.05 0.00 75 1012.4
20260901084544 78 165 3.0 7.0 0.00 0.05 0.00 75 1012.4
20260901084042 77 211 2.0 7.0 0.00 0.05 0.00 74 1012.3
20260901083548 78 256 2.0 11.0 0.00 0.05 0.00 74 1012.3
20260901083036 77 216 2.0 10.0 0.00 0.05 0.00 74 1012.2
20260901082542 78 210 2.0 10.0 0.00 0.05 0.00 74 1012.3
20260901082032 78 194 2.0 10.0 0.00 0.05 0.00 73 1012.3
20260901081540 78 165 4.0 14.0 0.00 0.05 0.00 73 1012.4
20260901081048 78 196 4.0 14.0 0.00 0.05 0.00 73 1012.5
20260901080554 78 173 5.0 13.0 0.00 0.05 0.00 73 1012.5
20260901080045 78 174 4.0 13.0 0.00 0.05 0.00 72 1012.6
20260901075550 78 173 3.0 14.0 0.00 0.05 0.00 72 1012.5
20260901075055 77 175 5.0 14.0 0.00 0.05 0.00 72 1012.4
20260901074509 77 173 4.0 14.0 0.00 0.05 0.00 72 1012.5
20260901074055 78 209 3.0 14.0 0.00 0.05 0.00 71 1012.5
20260901073506 78 161 4.0 9.0 0.00 0.05 0.00 70 1012.7
20260901073020 77 182 4.0 14.0 0.00 0.05 0.00 70 1012.8
20260901072554 77 214 4.0 14.0 0.00 0.05 0.00 69 1012.8
20260901072102 77 180 4.0 10.0 0.00 0.05 0.00 69 1012.9
20260901071548 77 155 4.0 10.0 0.00 0.05 0.00 69 1012.9
20260901071002 77 186 3.0 10.0 0.00 0.05 0.00 69 1013.1
20260901070510 77 151 3.0 10.0 0.00 0.05 0.00 70 1013.0
20260901070100 77 158 3.0 14.0 0.00 0.07 0.00 71 1012.9
20260901065540 77 198 3.0 14.0 0.00 0.07 0.00 71 1012.8
20260901065042 77 200 4.0 11.0 0.00 0.07 0.00 72 1012.9
20260901064548 77 263 2.0 11.0 0.00 0.07 0.00 73 1013.0
20260901064036 77 196 3.0 11.0 0.00 0.07 0.00 72 1013.1
20260901063539 77 193 3.0 10.0 0.00 0.07 0.00 73 1013.1
20260901063030 77 133 3.0 11.0 0.00 0.07 0.00 73 1013.3
20260901062531 77 155 4.0 11.0 0.00 0.07 0.00 73 1013.5
20260901062040 76 214 4.0 10.0 0.00 0.07 0.00 74 1013.6
20260901061546 76 194 3.0 10.0 0.00 0.07 0.00 75 1013.4
20260901061052 76 194 2.0 10.0 0.00 0.07 0.00 75 1013.4
20260901060559 77 169 2.0 7.0 0.00 0.07 0.00 75 1013.6
20260901060504 77 205 2.0 8.0 0.00 0.07 0.00 75 1013.6
20260901060006 77 360 3.0 10.0 0.00 0.09 0.00 75 1013.6
20260901055516 77 182 3.0 10.0 0.00 0.09 0.00 75 1013.6
20260901055059 77 161 4.0 9.0 0.00 0.09 0.00 75 1013.8
20260901054549 77 360 2.0 10.0 0.00 0.09 0.00 74 1014.0
20260901054058 77 178 2.0 9.0 0.00 0.09 0.00 74 1014.1
20260901053511 77 171 3.0 11.0 0.00 0.09 0.00 73 1014.2
20260901053009 77 175 3.0 11.0 0.00 0.09 0.00 74 1014.2
20260901052525 77 200 3.0 9.0 0.00 0.09 0.00 74 1014.2
20260901052025 77 189 3.0 7.0 0.00 0.09 0.00 72 1014.2
20260901051527 77 194 2.0 7.0 0.00 0.09 0.00 72 1014.2
20260901051038 77 184 2.0 8.0 0.00 0.09 0.00 72 1014.3
20260901050548 77 178 3.0 8.0 0.00 0.09 0.00 71 1014.5
20260901045503 77 205 1.0 12.0 0.00 0.15 0.00 71 1014.7
20260901045056 77 194 3.0 12.0 0.00 0.15 0.00 70 1014.6
20260901044613 77 170 3.0 10.0 0.00 0.15 0.00 71 1014.6
20260901044028 77 192 2.0 7.0 0.00 0.15 0.00 71 1014.5
20260901043535 77 192 2.0 8.0 0.00 0.15 0.00 71 1014.4
20260901043048 77 194 2.0 8.0 0.00 0.15 0.00 71 1014.3
20260901042553 77 205 1.0 4.0 0.00 0.15 0.00 71 1014.4
20260901042037 76 213 1.0 6.0 0.00 0.15 0.00 71 1014.3
20260901041541 76 185 1.0 5.0 0.00 0.15 0.00 71 1014.4
20260901041050 76 185 2.0 5.0 0.00 0.15 0.00 71 1014.4
20260901040535 76 360 2.0 5.0 0.00 0.15 0.00 71 1014.5
20260901040041 76 194 1.0 4.0 0.00 0.21 0.15 71 1014.6
20260901035513 76 184 1.0 4.0 0.00 0.21 0.15 72 1014.6
20260901035108 76 200 1.0 4.0 0.00 0.21 0.15 72 1014.6
20260901034600 76 195 1.0 4.0 0.00 0.21 0.15 72 1014.6
20260901034040 76 191 1.0 4.0 0.00 0.21 0.15 72 1014.6
20260901033552 76 196 1.0 4.0 0.00 0.21 0.15 72 1014.6
20260901033102 76 202 1.0 4.0 0.00 0.21 0.15 72 1014.6
20260901032504 76 186 1.0 5.0 0.00 0.21 0.15 72 1014.5
20260901032101 76 187 1.0 5.0 0.00 0.21 0.15 72 1014.6
20260901031559 76 225 1.0 6.0 0.00 0.21 0.15 73 1014.6
20260901031100 76 183 3.0 6.0 0.00 0.21 0.15 73 1014.7
20260901030508 76 179 1.0 4.0 0.00 0.21 0.15 73 1014.6
20260901030038 76 179 1.0 4.0 0.00 0.21 0.15 74 1014.7
20260901025547 76 205 1.0 4.0 0.00 0.21 0.15 73 1014.6
20260901025022 76 197 1.0 4.0 0.00 0.21 0.15 73 1014.7
20260901024512 76 196 1.0 6.0 0.00 0.21 0.15 73 1014.7
20260901024022 76 360 2.0 6.0 0.00 0.21 0.15 73 1014.7
20260901023531 76 192 1.0 3.0 0.00 0.21 0.15 74 1014.7
20260901023040 76 194 1.0 3.0 0.00 0.21 0.15 74 1014.7
20260901022542 76 194 1.0 5.0 0.00 0.21 0.15 75 1014.9
20260901022036 75 195 1.0 5.0 0.00 0.21 0.15 77 1014.8
20260901021602 75 195 1.0 5.0 0.00 0.21 0.15 78 1014.8
20260901021030 75 178 2.0 5.0 0.00 0.21 0.15 79 1014.9
20260901020540 74 161 2.0 5.0 0.00 0.21 0.15 80 1014.9
20260901020110 74 244 2.0 4.0 0.00 0.22 0.15 82 1014.9
20260901015505 74 209 0.0 4.0 0.00 0.22 0.15 86 1014.9
20260901015056 73 209 1.0 4.0 0.00 0.22 0.15 87 1015.0
20260901014506 73 277 0.0 0.0 0.00 0.22 0.15 87 1015.1
20260901014048 73 276 0.0 0.0 0.00 0.22 0.15 87 1015.1
20260901013554 74 279 0.0 0.0 0.00 0.22 0.15 87 1015.2
20260901013105 74 281 0.0 0.0 0.00 0.22 0.15 87 1015.3
20260901012603 74 281 0.0 2.0 0.00 0.22 0.15 87 1015.3
20260901012502 74 281 0.0 2.0 0.00 0.22 0.15 86 1015.3
20260901012001 74 281 0.0 2.0 0.00 0.22 0.15 86 1015.4
20260901011512 74 281 0.0 2.0 0.00 0.22 0.15 86 1015.3
20260901011022 74 229 0.0 2.0 0.00 0.22 0.15 86 1015.3
20260901010529 74 229 0.0 3.0 0.00 0.22 0.15 86 1015.4
20260901010044 74 228 1.0 3.0 0.00 0.23 0.15 86 1015.4
20260901005548 74 229 0.0 2.0 0.00 0.23 0.15 86 1015.4
20260901005051 74 229 0.0 2.0 0.00 0.23 0.15 85 1015.4
20260901004557 74 229 0.0 2.0 0.00 0.23 0.15 86 1015.3
20260901004004 74 229 0.0 2.0 0.00 0.23 0.15 85 1015.4
20260901003519 74 228 0.0 1.0 0.00 0.23 0.15 85 1015.4
20260901003022 75 228 0.0 1.0 0.00 0.23 0.15 84 1015.3
20260901002516 75 228 0.0 3.0 0.00 0.23 0.15 84 1015.2
20260901002022 75 228 0.0 3.0 0.00 0.23 0.15 83 1015.2
20260901001534 75 228 1.0 3.0 0.00 0.23 0.15 83 1015.1
20260901001044 75 227 1.0 4.0 0.00 0.23 0.15 83 1015.1
20260901000551 75 215 0.0 2.0 0.00 0.23 0.15 83 1015.1
20260901000002 75 213 0.0 5.0 0.00 0.23 0.15 83 1014.9
20260831235513 75 214 1.0 5.0 0.00 0.23 0.15 83 1014.8
20260831235053 75 304 0.0 4.0 0.00 0.23 0.15 83 1014.8
20260831234555 76 254 0.0 4.0 0.00 0.23 0.15 83 1014.7
20260831234029 76 255 0.0 2.0 0.00 0.23 0.15 83 1014.8
20260831233535 76 256 0.0 2.0 0.00 0.23 0.15 82 1014.7
20260831233044 77 256 0.0 1.0 0.00 0.23 0.15 82 1014.8
20260831232539 77 256 0.0 1.0 0.00 0.23 0.15 82 1014.9
20260831232034 77 256 0.0 2.0 0.00 0.23 0.15 82 1015.0
20260831231536 77 256 0.0 2.0 0.00 0.23 0.15 81 1015.0
20260831231022 77 256 0.0 2.0 0.00 0.23 0.15 82 1015.0
20260831230526 77 256 0.0 2.0 0.00 0.23 0.15 82 1015.0
20260831230030 77 256 0.0 2.0 0.00 0.23 0.15 82 1015.2
20260831225535 77 256 0.0 3.0 0.00 0.23 0.15 83 1015.4
20260831225045 77 255 1.0 4.0 0.00 0.23 0.15 83 1015.4
20260831224552 77 254 1.0 4.0 0.00 0.23 0.15 84 1015.7
20260831224035 77 254 1.0 3.0 0.00 0.23 0.15 84 1015.8
20260831223537 77 254 1.0 3.0 0.00 0.23 0.15 84 1015.9
20260831223044 77 254 0.0 0.0 0.00 0.23 0.15 85 1015.8
20260831222533 77 256 0.0 0.0 0.00 0.23 0.15 85 1015.7
20260831222009 77 256 0.0 0.0 0.00 0.23 0.15 84 1015.6
20260831221602 77 256 0.0 0.0 0.00 0.23 0.15 85 1015.5
20260831221501 77 256 0.0 0.0 0.00 0.23 0.15 85 1015.6
20260831221059 76 256 0.0 0.0 0.00 0.23 0.15 85 1015.6
20260831220507 77 256 0.0 0.0 0.00 0.23 0.15 85 1015.5
20260831220022 76 256 0.0 0.0 0.00 0.25 0.15 85 1015.6
20260831215522 76 256 0.0 0.0 0.00 0.25 0.15 85 1015.6
20260831215035 76 256 0.0 0.0 0.00 0.25 0.15 85 1015.7
20260831214535 76 256 0.0 0.0 0.00 0.25 0.15 85 1015.7
20260831214046 76 256 0.0 0.0 0.00 0.25 0.15 85 1015.7
20260831213553 76 256 0.0 0.0 0.00 0.25 0.15 85 1015.8
20260831213056 76 256 0.0 0.0 0.00 0.25 0.15 85 1015.8
20260831212504 76 256 0.0 0.0 0.00 0.25 0.15 86 1015.7
20260831212007 76 256 0.0 1.0 0.00 0.25 0.15 86 1015.7
20260831211516 76 256 0.0 1.0 0.00 0.25 0.15 85 1015.6
20260831211101 76 256 0.0 1.0 0.00 0.25 0.15 85 1015.8
20260831210548 76 256 0.0 0.0 0.00 0.25 0.15 85 1015.9
20260831210054 76 256 0.0 1.0 0.00 0.27 0.15 84 1015.8
20260831205555 76 256 0.0 3.0 0.00 0.27 0.15 84 1016.0
20260831205100 76 256 0.0 3.0 0.00 0.27 0.15 84 1016.1
20260831204511 76 256 1.0 3.0 0.00 0.27 0.15 84 1016.2
20260831204050 76 256 0.0 3.0 0.00 0.27 0.15 84 1016.0
20260831203553 76 256 0.0 3.0 0.00 0.27 0.15 84 1016.0
20260831203046 76 256 0.0 2.0 0.00 0.27 0.15 84 1016.1
20260831202539 76 256 0.0 3.0 0.00 0.27 0.15 84 1016.1
20260831202046 76 256 0.0 3.0 0.00 0.27 0.15 84 1016.1
20260831201538 76 255 1.0 3.0 0.00 0.27 0.15 84 1016.2
20260831201038 76 256 1.0 3.0 0.00 0.27 0.15 83 1016.1
20260831200523 76 254 0.0 2.0 0.00 0.27 0.15 83 1016.2
20260831200039 76 255 0.0 3.0 0.00 0.27 0.15 83 1016.2
20260831195519 76 255 1.0 3.0 0.00 0.27 0.15 83 1016.4
20260831195023 76 257 1.0 3.0 0.00 0.27 0.15 83 1016.3
20260831194633 76 257 0.0 3.0 0.00 0.27 0.15 83 1016.4
20260831194501 76 257 1.0 3.0 0.00 0.27 0.15 83 1016.4
20260831194044 76 257 1.0 3.0 0.00 0.27 0.15 84 1016.5
20260831193547 76 256 0.0 4.0 0.00 0.27 0.15 83 1016.6
20260831193053 76 256 2.0 4.0 0.00 0.27 0.15 82 1016.6
20260831192559 77 257 1.0 4.0 0.00 0.27 0.15 82 1016.6
20260831192503 77 256 1.0 4.0 0.00 0.27 0.15 82 1016.7
20260831192056 77 31 0.0 4.0 0.00 0.27 0.15 83 1016.8
20260831191541 77 242 1.0 5.0 0.00 0.27 0.15 82 1016.7
20260831191029 77 360 1.0 5.0 0.00 0.27 0.15 81 1016.8
20260831190535 77 249 2.0 5.0 0.00 0.27 0.15 81 1016.8
20260831190019 77 237 2.0 6.0 0.00 0.27 0.15 80 1016.9
20260831185523 77 360 3.0 6.0 0.00 0.27 0.15 79 1016.8
20260831185034 78 360 2.0 6.0 0.00 0.27 0.15 78 1016.9
20260831184602 78 253 3.0 6.0 0.00 0.27 0.15 77 1016.9
20260831184045 78 360 3.0 6.0 0.00 0.27 0.15 77 1016.8
20260831183551 78 261 3.0 6.0 0.00 0.27 0.15 76 1016.9
20260831183103 78 223 2.0 7.0 0.00 0.27 0.15 77 1016.8
20260831182539 78 221 1.0 7.0 0.00 0.27 0.15 76 1016.9
20260831182003 79 236 3.0 5.0 0.00 0.27 0.15 75 1016.8
20260831181550 79 246 1.0 6.0 0.00 0.27 0.15 74 1016.8
20260831181056 80 257 1.0 7.0 0.00 0.27 0.15 74 1016.8
20260831180505 80 247 2.0 10.0 0.00 0.27 0.15 72 1016.7
20260831180005 81 200 4.0 10.0 0.00 0.27 0.15 71 1016.6
20260831175513 81 360 2.0 8.0 0.00 0.27 0.15 72 1016.6
20260831175027 81 360 2.0 8.0 0.00 0.27 0.15 71 1016.7
20260831174532 81 254 3.0 9.0 0.00 0.27 0.15 69 1016.6
20260831174009 82 360 4.0 9.0 0.00 0.27 0.15 69 1016.6
20260831173555 82 360 3.0 8.0 0.00 0.27 0.15 70 1016.7
20260831173003 82 257 4.0 9.0 0.00 0.27 0.15 71 1016.7
20260831172507 81 244 3.0 11.0 0.00 0.27 0.15 71 1016.6
20260831172019 81 360 4.0 11.0 0.00 0.27 0.15 71 1016.6
20260831171521 80 220 2.0 10.0 0.00 0.27 0.15 73 1016.7
20260831171007 80 360 5.0 10.0 0.00 0.27 0.15 72 1016.8
20260831170555 80 206 1.0 9.0 0.00 0.27 0.15 74 1016.7
20260831170001 80 198 4.0 10.0 0.00 0.28 0.15 74 1016.8
20260831165508 79 224 5.0 10.0 0.00 0.28 0.15 73 1016.8
20260831165050 79 270 2.0 10.0 0.00 0.28 0.15 74 1016.9
20260831164554 79 224 6.0 10.0 0.00 0.28 0.15 73 1016.9
20260831164001 79 360 4.0 9.0 0.00 0.28 0.15 75 1017.0
20260831163519 79 235 3.0 11.0 0.00 0.28 0.15 74 1017.0
20260831163024 79 226 4.0 11.0 0.00 0.28 0.15 75 1017.0
20260831162526 79 244 3.0 8.0 0.00 0.28 0.15 76 1017.0
20260831162031 78 230 2.0 9.0 0.00 0.28 0.15 77 1017.0
20260831161533 78 245 3.0 9.0 0.00 0.28 0.15 77 1016.9
20260831161042 77 360 1.0 8.0 0.00 0.28 0.15 79 1016.9
20260831160548 77 194 1.0 6.0 0.00 0.28 0.15 80 1017.0
20260831160056 76 215 1.0 6.0 0.00 0.28 0.15 81 1017.1
20260831155557 76 211 2.0 9.0 0.00 0.28 0.15 80 1017.1
20260831155005 75 231 4.0 10.0 0.00 0.28 0.15 80 1017.2
20260831154555 75 198 2.0 10.0 0.00 0.28 0.15 81 1017.3
20260831154005 75 177 2.0 4.0 0.00 0.28 0.15 82 1017.2
20260831153523 74 240 2.0 5.0 0.00 0.28 0.15 82 1017.2
20260831153100 74 180 1.0 6.0 0.00 0.28 0.15 82 1017.2
20260831152508 74 189 1.0 5.0 0.00 0.28 0.15 81 1017.1
20260831152024 74 150 2.0 6.0 0.00 0.28 0.15 82 1017.1
20260831151522 74 184 2.0 7.0 0.00 0.28 0.15 81 1017.2
20260831151035 74 181 3.0 7.0 0.00 0.28 0.15 81 1017.2
20260831150544 74 194 2.0 8.0 0.00 0.28 0.15 82 1017.1
20260831150050 73 145 3.0 8.0 0.00 0.28 0.15 82 1017.0
20260831145556 73 209 2.0 7.0 0.00 0.28 0.15 82 1016.9
20260831145103 73 98 3.0 6.0 0.00 0.28 0.15 82 1016.8
20260831144527 73 201 2.0 5.0 0.00 0.28 0.15 82 1017.0
20260831144024 72 180 2.0 6.0 0.00 0.28 0.15 82 1016.9
20260831143515 72 159 1.0 9.0 0.00 0.28 0.15 82 1016.9
20260831143030 72 178 2.0 9.0 0.00 0.28 0.15 82 1016.9
20260831142528 72 167 3.0 7.0 0.00 0.28 0.15 81 1016.8
20260831142030 72 136 3.0 7.0 0.00 0.28 0.15 82 1016.7
20260831141514 72 131 3.0 8.0 0.00 0.28 0.15 82 1016.7
20260831141024 71 136 3.0 8.0 0.00 0.28 0.15 83 1016.8
20260831140532 71 132 3.0 10.0 0.00 0.28 0.15 83 1016.7
20260831140038 71 169 3.0 10.0 0.00 0.28 0.15 82 1016.8